DW5759 Weather Reports


Display with metric or nautical units.
time (UTC)temp
F
wind
direction
speed
MPH
gust
MPH
rain 1hr
in
rain 24hr
in
rain mn
in
humidity
%
barometer
mb
20260902173019 63 1 0.0 0.0 0.05 0.13 0.07 91 1021.3
20260902171523 64 277 0.0 0.0 0.00 0.08 0.02 89 1021.4
20260902170002 64 159 0.0 0.0 0.00 0.08 0.02 88 1020.8
20260902164505 64 163 0.0 0.0 0.00 0.08 0.02 89 1020.9
20260902163007 64 156 0.0 0.0 0.00 0.08 0.02 89 1020.8
20260902161515 65 164 0.0 0.0 0.00 0.08 0.02 88 1021.1
20260902160009 65 251 0.0 0.0 0.00 0.08 0.02 89 1020.7
20260902154512 64 250 0.0 0.0 0.00 0.08 0.02 89 1020.6
20260902153002 64 259 0.0 0.0 0.00 0.08 0.02 89 1020.6
20260902151503 64 309 0.0 0.0 0.00 0.08 0.02 90 1020.6
20260902150014 64 109 0.0 0.0 0.00 0.08 0.02 90 1020.8
20260902144507 64 233 0.0 0.0 0.00 0.08 0.02 90 1020.9
20260902143007 63 314 0.0 0.0 0.00 0.08 0.02 91 1021.2
20260902141505 63 114 0.0 0.0 0.00 0.08 0.02 91 1021.2
20260902140004 63 98 0.0 0.0 0.00 0.08 0.02 92 1021.0
20260902134505 62 155 0.0 0.0 0.00 0.08 0.02 92 1021.0
20260902133007 62 201 0.0 0.0 0.00 0.08 0.02 93 1021.1
20260902131507 62 146 0.0 0.0 0.00 0.09 0.02 94 1020.9
20260902130019 62 170 0.0 0.0 0.00 0.11 0.02 94 1020.9
20260902124510 62 314 0.0 0.0 0.00 0.13 0.02 94 1020.5
20260902123007 62 314 0.0 0.0 0.00 0.17 0.02 94 1020.5
20260902121511 62 229 0.0 0.0 0.00 0.18 0.02 94 1020.3
20260902120011 62 135 0.0 0.0 0.00 0.18 0.02 94 1020.4
20260902114510 62 272 0.0 0.0 0.00 0.18 0.02 94 1020.3
20260902113011 62 228 0.0 1.0 0.00 0.18 0.02 94 1020.3
20260902111506 62 224 0.0 0.0 0.00 0.18 0.02 94 1020.5
20260902110016 62 225 0.0 0.0 0.00 0.18 0.02 94 1020.5
20260902104515 62 225 0.0 0.0 0.00 0.18 0.02 94 1020.4
20260902103011 62 246 0.0 0.0 0.00 0.18 0.02 94 1020.3
20260902101504 62 246 0.0 0.0 0.00 0.18 0.02 94 1020.1
20260902100007 62 250 0.0 0.0 0.00 0.18 0.02 94 1020.1
20260902094514 62 250 0.0 0.0 0.00 0.18 0.02 94 1019.8
20260902093016 62 250 0.0 0.0 0.00 0.18 0.02 94 1019.7
20260902091503 62 250 0.0 0.0 0.00 0.18 0.02 94 1019.5
20260902090008 62 250 0.0 0.0 0.01 0.18 0.02 94 1019.4
20260902084511 62 250 0.0 0.0 0.01 0.18 0.02 94 1019.3
20260902083015 62 250 0.0 0.0 0.01 0.18 0.02 94 1019.3
20260902081521 62 250 0.0 0.0 0.01 0.18 0.02 94 1019.3
20260902080004 63 250 0.0 0.0 0.00 0.17 0.01 94 1019.1
20260902074507 63 250 0.0 0.0 0.00 0.17 0.01 94 1019.1
20260902073010 63 250 0.0 0.0 0.00 0.17 0.01 94 1019.2
20260902071517 63 250 0.0 0.0 0.01 0.17 0.01 93 1019.3
20260902070020 63 250 0.0 0.0 0.01 0.17 0.01 93 1019.5
20260902064508 63 256 0.0 0.0 0.01 0.17 0.01 93 1019.5
20260902063008 63 256 0.0 0.0 0.01 0.17 0.01 93 1019.5
20260902061527 63 256 0.0 0.0 0.00 0.16 0.00 92 1019.4
20260902060021 63 256 0.0 0.0 0.00 0.16 0.00 92 1019.5
20260902054527 63 236 0.0 0.0 0.00 0.16 0.00 92 1019.5
20260902053007 64 236 0.0 0.0 0.00 0.17 0.00 92 1019.3
20260902051509 64 269 0.0 0.0 0.00 0.17 0.00 92 1019.2
20260902050016 64 303 0.0 0.0 0.00 0.17 0.00 92 1018.9
20260902044527 64 303 0.0 0.0 0.00 0.17 0.00 92 1018.9
20260902043033 64 303 0.0 0.0 0.00 0.17 0.00 91 1018.6
20260902041512 65 304 0.0 0.0 0.00 0.17 0.00 91 1018.5
20260902040024 65 304 0.0 0.0 0.00 0.17 0.00 91 1018.5
20260902034520 65 304 0.0 0.0 0.00 0.17 0.17 92 1018.3
20260902033004 65 235 0.0 0.0 0.00 0.17 0.17 92 1018.0
20260902031507 66 319 0.0 0.0 0.00 0.17 0.17 92 1017.9
20260902030008 66 319 0.0 0.0 0.00 0.17 0.17 93 1017.7
20260902024515 66 319 0.0 0.0 0.00 0.17 0.17 92 1017.7
20260902023032 66 319 0.0 0.0 0.00 0.17 0.17 93 1017.4
20260902021505 66 319 0.0 0.0 0.00 0.17 0.17 93 1017.4
20260902020017 67 309 0.0 0.0 0.00 0.17 0.17 93 1017.5
20260902014518 67 309 0.0 0.0 0.00 0.17 0.17 92 1017.4
20260902013016 67 309 0.0 0.0 0.00 0.17 0.17 92 1017.3
20260902011524 67 314 0.0 0.0 0.00 0.17 0.17 92 1017.0
20260902010010 68 335 0.0 1.0 0.00 0.17 0.17 92 1016.9
20260902004508 68 131 0.0 1.0 0.00 0.17 0.17 93 1016.5
20260902003013 69 304 0.0 0.0 0.00 0.18 0.17 94 1016.0
20260902001516 69 304 0.0 0.0 0.00 0.18 0.17 94 1015.8
20260902000031 69 324 0.0 2.0 0.00 0.18 0.17 94 1015.6
20260901234507 69 329 0.0 0.0 0.00 0.19 0.17 94 1015.4
20260901233013 69 350 0.0 0.0 0.00 0.19 0.17 94 1015.5
20260901231516 69 340 0.0 0.0 0.00 0.19 0.17 94 1015.6
20260901230018 69 348 0.0 0.0 0.00 0.19 0.17 94 1015.5
20260901224527 69 359 0.0 0.0 0.00 0.19 0.17 94 1015.3
20260901223007 70 351 0.0 0.0 0.00 0.19 0.17 94 1015.2
20260901221527 70 252 0.0 0.0 0.00 0.19 0.17 93 1015.0
20260901220027 70 330 0.0 0.0 0.00 0.19 0.17 93 1014.8
20260901214526 70 319 0.0 0.0 0.03 0.19 0.17 94 1014.7
20260901213029 70 346 0.0 2.0 0.06 0.19 0.17 94 1014.5
20260901211529 71 359 0.0 0.0 0.06 0.19 0.17 93 1014.6
20260901210013 71 341 0.0 2.0 0.06 0.19 0.17 92 1014.4
20260901204526 72 11 0.0 1.0 0.03 0.16 0.14 91 1014.3
20260901203028 73 11 0.0 4.0 0.00 0.13 0.11 90 1014.2
20260901201529 73 359 0.0 2.0 0.00 0.13 0.11 90 1014.4
20260901200023 73 360 0.0 6.0 0.00 0.13 0.11 90 1013.9
20260901194533 74 360 0.0 4.0 0.00 0.13 0.11 89 1014.2
20260901193024 74 8 0.0 3.0 0.00 0.13 0.11 89 1014.0
20260901191545 76 360 0.0 1.0 0.00 0.13 0.11 87 1013.7
20260901190033 77 20 0.0 0.0 0.00 0.13 0.11 87 1013.7
20260901184529 77 326 0.0 0.0 0.00 0.13 0.11 86 1013.7
20260901183019 78 325 0.0 0.0 0.00 0.13 0.11 85 1013.8
20260901181528 78 96 0.0 0.0 0.00 0.13 0.11 85 1013.7
20260901180032 76 96 0.0 0.0 0.00 0.13 0.11 88 1013.6
20260901174534 75 295 0.0 0.0 0.00 0.13 0.11 91 1013.6